Flag for U.S.A. Weather past 2 weeks in Oklahoma City, Oklahoma, U.S.A.

Now
79 °F

Passing clouds.


Feels Like: 81 °F
Forecast: 69 / 92 °F
Wind: 13 mph from South

Location: Will Rogers World Airport

Current Time: Aug 31, 2015 at 10:28:25 AM

Latest Report: Aug 31, 2015 at 9:52 AM


Visibility: 10 mi

Pressure: 29.96 "Hg

Humidity: 62%

Dew point: 65 °F

Location of Oklahoma CityLocation

Historic Weather in Oklahoma City — Graph

°F

Oklahoma City temperature yesterday

Maximum temperature yesterday: 88 °F (at 4:52 PM)
Minimum temperature yesterday: 65 °F (at 6:52 AM)
Average temperature yesterday: 77 °F

Past Weeks' High & Low Weather Summary

 TemperatureHumidityPressure
High94 °F (Aug 27, 3:52 PM)97% (Aug 21, 6:52 AM)30.17 "Hg (Aug 21, 6:52 AM)
Low51 °F (Aug 20, 6:52 AM)35% (Aug 20, 5:52 PM)29.62 "Hg (Aug 18, 7:52 PM)
Average77 °F67%29.95 "Hg
* Reported Aug 16 8:52 AM — Aug 31 8:52 AM, Oklahoma City, Weather by CustomWeather, © 2015

Note: Actual official high and low records may vary slightly from our data, if they occured in-between our weather recording intervals... More about our weather records

Advertising

Oklahoma City weather history for previous 24 hours

 ConditionsComfort  
Time TempWeatherWind HumidityBarometerVisibility
8:52 AM
Mon, Aug 31
73 °FPassing clouds.13 mph76%29.96 "Hg10 mi
7:52 AM68 °FPassing clouds.8 mph87%29.95 "Hg10 mi
6:52 AM67 °FPassing clouds.9 mph87%29.93 "Hg10 mi
5:52 AM67 °FPassing clouds.8 mph90%29.92 "Hg10 mi
4:52 AM68 °FPassing clouds.6 mph87%29.91 "Hg10 mi
3:52 AM69 °FPassing clouds.7 mph87%29.90 "Hg10 mi
2:52 AM71 °FPassing clouds.6 mph87%29.89 "Hg10 mi
1:52 AM72 °FPassing clouds.9 mph87%29.90 "Hg10 mi
12:52 AM73 °FPassing clouds.10 mph84%29.91 "Hg10 mi
11:52 PM
Sun, Aug 30
75 °FPassing clouds.No wind76%29.89 "Hg10 mi
10:52 PM75 °FPassing clouds.9 mph74%29.90 "Hg10 mi
9:52 PM76 °FPassing clouds.7 mph69%29.90 "Hg10 mi
8:52 PM76 °FScattered clouds.7 mph67%29.89 "Hg10 mi
7:52 PM83 °FHigh level clouds.No wind53%29.87 "Hg10 mi
6:52 PM87 °FPartly sunny.5 mph43%29.88 "Hg10 mi
5:52 PM88 °FPartly sunny.6 mph43%29.89 "Hg10 mi
4:52 PM88 °FScattered clouds.8 mph43%29.90 "Hg10 mi
3:52 PM87 °FScattered clouds.3 mph43%29.91 "Hg10 mi
2:52 PM86 °FScattered clouds.7 mph48%29.94 "Hg10 mi
1:52 PM86 °FScattered clouds.3 mph48%29.95 "Hg10 mi
12:52 PM83 °FScattered clouds.No wind55%29.97 "Hg10 mi
11:52 AM84 °FScattered clouds.3 mph55%29.99 "Hg10 mi
10:52 AM81 °FPassing clouds.3 mph62%29.98 "Hg10 mi
Weather by CustomWeather, © 2015

See weather overviewHow to use our weather pages